This is the latest recevied weather packets stored in our database for station/object DG6YGE-6. If no packets are shown the sender has not sent any weather packets the latest 10 day(s).
| Time | Temp. | Humidity | Pressure | Rain* | Wind** | Luminosity | Snow |
|---|---|---|---|---|---|---|---|
| 1788506352 | 20.56° C | 83% | 1009.3 hPa | 0 mm | - | 79 W/m² | - |
| 1788505752 | 20.56° C | 83% | 1009.3 hPa | 0 mm | - | 73 W/m² | - |
| 1788505152 | 20.56° C | 83% | 1009.4 hPa | 0 mm | - | 66 W/m² | - |
| 1788504552 | 20.56° C | 84% | 1009.4 hPa | 0 mm | - | 35 W/m² | - |
| 1788503952 | 20.56° C | 84% | 1009.6 hPa | 0 mm | - | 40 W/m² | - |
| 1788503352 | 20° C | 85% | 1009.5 hPa | 0 mm | - | 36 W/m² | - |
| 1788502752 | 20° C | 86% | 1009.6 hPa | 0 mm | - | 47 W/m² | - |
| 1788502152 | 20° C | 87% | 1009.6 hPa | 0 mm | - | 61 W/m² | - |
| 1788501552 | 20° C | 88% | 1009.8 hPa | 0 mm | - | 52 W/m² | - |
| 1788500951 | 19.44° C | 88% | 1009.9 hPa | 0 mm | - | 31 W/m² | - |
| 1788500352 | 19.44° C | 88% | 1010.1 hPa | 0 mm | - | 38 W/m² | - |
| 1788499752 | 19.44° C | 89% | 1010.3 hPa | 0 mm | - | 18 W/m² | - |
| 1788499152 | 19.44° C | 89% | 1010.5 hPa | 0 mm | - | 18 W/m² | - |
| 1788498551 | 19.44° C | 89% | 1010.6 hPa | 0 mm | - | 11 W/m² | - |
| 1788497952 | 19.44° C | 88% | 1010.5 hPa | 0 mm | - | 8 W/m² | - |
| 1788497351 | 20° C | 88% | 1010.6 hPa | 0 mm | - | 0 W/m² | - |
| 1788496752 | 20° C | 87% | 1010.6 hPa | 0 mm | - | 0 W/m² | - |
| 1788496152 | 20° C | 87% | 1010.9 hPa | 0 mm | - | 0 W/m² | - |
| 1788495551 | 20° C | 88% | 1011 hPa | 0 mm | - | 0 W/m² | - |
| 1788494951 | 20° C | 88% | 1011.1 hPa | 0 mm | - | 0 W/m² | - |
| 1788494352 | 19.44° C | 88% | 1011.1 hPa | 0 mm | - | 0 W/m² | - |
| 1788493751 | 19.44° C | 88% | 1011.4 hPa | 0 mm | - | 0 W/m² | - |
| 1788493152 | 19.44° C | 89% | 1011.4 hPa | 0 mm | - | 0 W/m² | - |
| 1788492551 | 19.44° C | 89% | 1011.5 hPa | 0 mm | - | 0 W/m² | - |
| 1788491952 | 19.44° C | 89% | 1011.6 hPa | 0 mm | - | 0 W/m² | - |
* Rain latest hour (hover to see other rain measurements)
** Current wind speed in m/s (hover to see current wind gust speed)